Regional Weather Roundup
Issued by NWS

Home | Current Version | Previous Version | Graphics & Text | Print | Product List | Glossary On
Versions: 1 2 3 4 5 6 7 8 9 10 11 12 13 14 15 16 17 18 19 20 21 22 23 24 25 26 27 28 29 30 31 32 33 34 35 36 37 38 39 40 41 42 43 44 45 46 47 48 49 50
000
ASUS43 KMKX 210200
RWRWI

WISCONSIN REGIONAL WEATHER ROUNDUP
NATIONAL WEATHER SERVICE MILWAUKEE/SULLIVAN WI
900 PM CDT MON OCT 20 2014

NOTE: "FAIR" INDICATES FEW OR NO CLOUDS BELOW 12,000 FEET WITH NO
SIGNIFICANT WEATHER AND/OR OBSTRUCTIONS TO VISIBILITY.

WIZ001-002-006>008-014>016-023>028-210300-
NORTHWEST WISCONSIN

CITY           SKY/WX    TMP DP  RH WIND       PRES   REMARKS
SUPERIOR ARPT  CLOUDY    47  38  70 N5        30.09S
ASHLAND        CLOUDY    48  40  73 NE9       30.09R
HAYWARD        CLOUDY    48  39  71 N6        30.08R
SIREN          CLOUDY    49  38  63 NE5       30.07S
CUMBERLAND     CLOUDY    46  37  71 N5        30.07R
RICE LAKE      CLOUDY    49  40  70 NW3       30.07S
CHETEK         CLOUDY    47  41  77 CALM      30.06R
LADYSMITH      CLOUDY    49  40  70 N5        30.06S
EAU CLAIRE     NOT AVBL
MENOMONIE      CLOUDY    47  39  73 CALM      30.05S
NEW RICHMOND   CLEAR     43  38  82 NE3       30.07R
OSCEOLA        CLEAR     46  39  76 N5        30.09R
$$

WIZ003>005-009-010-017-018-210300-
NORTH CENTRAL WISCONSIN

CITY           SKY/WX    TMP DP  RH WIND       PRES   REMARKS
MANITOWISH WTR DRIZZLE   43  42  98 N5        30.04S
ARBOR VITAE    CLOUDY    44  42  93 N5        30.04R
WOODRUFF       CLOUDY    44  42  93 N5        30.04R
RHINELANDER    LGT RAIN  43  41  93 N3        30.05R FOG
EAGLE RIVER    LGT RAIN  41  40  97 NE7       30.04R
LAND O LAKES   CLOUDY    42  39  90 N7        30.05R
PHILLIPS       CLOUDY    46  39  79 N3        30.04S
TOMAHAWK       CLOUDY    45  40  84 CALM      30.05R
MEDFORD        CLOUDY    46  39  79 N3        30.04R
MERRILL        CLOUDY    46  40  79 N7        30.04R
$$

WIZ029-030-035-036-043>047-210300-
CENTRAL WISCONSIN

CITY           SKY/WX    TMP DP  RH WIND       PRES   REMARKS
WAUSAU         CLOUDY    47  40  76 CALM      30.03R
MOSINEE        NOT AVBL
MARSHFIELD     CLOUDY    50  40  68 N3        30.04R
STEVENS POINT  MOCLDY    46  38  74 N5        30.04R
WAUPACA        CLOUDY    52  42  68 N7        30.02S
WAUTOMA        NOT AVBL
WISC RAPIDS    CLOUDY    50  40  68 N6        30.05R
CAMP DOUGLAS   NOT AVBL
$$

WIZ011>013-019>022-031-037>040-048>050-210300-
NORTHEAST WISCONSIN

CITY           SKY/WX    TMP DP  RH WIND       PRES   REMARKS
ANTIGO         MOCLDY    42  39  90 N6        30.03R
SHAWANO        CLOUDY    49  42  75 N7        30.03R
OCONTO         CLOUDY    47  42  81 N8        30.01R
STURGEON BAY   CLOUDY    46  37  71 N14G21    30.01R
GREEN BAY      CLOUDY    48  42  80 N12       30.01R
MANITOWOC      NOT AVBL
APPLETON       CLOUDY    48  43  81 NE7       30.02R
CLINTONVILLE   CLOUDY    48  41  76 N5        30.02R
OSHKOSH        CLOUDY    51  42  71 N12       30.01R
$$

WIZ032>034-041-042-053>061-210300-
SOUTHWEST WISCONSIN

CITY           SKY/WX    TMP DP  RH WIND       PRES   REMARKS
LA CROSSE      CLEAR     51  41  68 N5        30.04R
SPARTA         CLOUDY    51  38  63 NE3       30.05R
VIROQUA        CLEAR     46  38  73 CALM      30.03R
BOSCOBEL       CLEAR     47  40  76 NE3       30.03R
PRAIRIE DU CHI CLEAR     54  40  57 NE6       30.01S
PLATTEVILLE    PTCLDY    48  40  75 NE6       30.02R
$$

WIZ056-057-062-063-064-067-068-210300-
SOUTH CENTRAL WISCONSIN

CITY           SKY/WX    TMP DP  RH WIND       PRES   REMARKS
REEDSBURG      CLOUDY    52  40  63 N6        30.03R
BARABOO/DELLS  CLOUDY    52  38  60 N3        30.03R
LONE ROCK      NOT AVBL
MINERAL POINT  CLEAR     50  37  62 N6        30.01R
MADISON        CLOUDY    51  42  71 N3        30.02R
MIDDLETON      MOCLDY    53  39  60 N8        30.02R
WATERTOWN      CLOUDY    50  43  77 N3        30.01R
MONROE         CLOUDY    50  41  71 N3        30.00R
JANESVILLE     CLOUDY    54  41  62 N6        30.00R
$$

WIZ051-052-058>065-066-070>072-210300-
SOUTHEAST WISCONSIN

CITY           SKY/WX    TMP DP  RH WIND       PRES   REMARKS
MILWAUKEE      MOCLDY    51  42  71 N8        30.00R
WAUKESHA       NOT AVBL
MILWAUKEE/TIMM CLOUDY    52  41  66 N8        30.01R
RACINE         CLOUDY    51  42  71 NW6       30.01R
BURLINGTON     CLOUDY    50  40  68 N8        29.99S
KENOSHA        CLOUDY    52  42  69 NW8       30.00R
FOND DU LAC    CLOUDY    50  43  77 NW6       30.01R
SHEBOYGAN      CLOUDY    49  43  80 NW9       30.00R
WEST BEND      CLOUDY    50  41  71 NW5       30.00R
JUNEAU         CLOUDY    49  42  79 CALM      30.02R
$$

LSZ147-162-210300-
LAKE SUPERIOR

STATION/POSITION TIME  TEMP    WIND        PRES    WAVE
                       AIR SEA DIR/SP/G            HT/PER
                 (UTC) (F)     (DEG/KT/KT) (MB)    (FT/S)
W MID LAKE BUOY  0050   46 46   30/ 16/ 19 1018.6R   1/ 3
DEVILS ISLAND    0100   49      30/ 12/ 15 1019.1R
PORT WING        0140   50      20/ 11/ 12 1019.0R
SAXON HARBOR     0100   49      40/ 12/ 15 1017.9R
$$

LMZ867-665-643>646-210300-
LAKE MICHIGAN

STATION/POSITION TIME  TEMP    WIND        PRES    WAVE
                       AIR SEA DIR/SP/G            HT/PER
                 (UTC) (F)     (DEG/KT/KT) (MB)    (FT/S)
CHAMBERS ISLAND  0100   48     330/ 17/ 21 1015.6R
N MID LAKE BUOY  0050   47 52  340/ 25/ 29 1013.8R   5/ 5
NORTHPORT PIER   0120   48     340/ 22     1015.6R
KEWAUNEE LAKESHO 0100          350/  3/  5   N/A
SHEBOYGAN LAKESH 0100   50 51  320/  9/ 11 1015.7R
PORT WASHINGTON  0140   51     320/  3/  5 1016.3R
ATWATER BUOY     0100   53     340/ 10/ 14 1016.3R
MILWAUKEE LAKESH 0100   53     340/  7/  9   N/A
S MID LAKE BUOY  0050   51 55  360/ 17/ 21 1014.8R   4/ 5
KENOSHA   LAKESH 0100   53     320/  7/ 10 1015.2R
$$

TC  - TEMPERATURE IN CELSIUS
VSB - VISIBILITY IN STATUTE MILES
WCI - WIND CHILL INDEX
HX  - HEAT INDEX




USA.gov is the U.S. government's official web portal to all federal, state and local government web resources and services.